Location: Paris
(48.8566°N, 2.3522°E)
Time: 19:25:50
(UTC+01:00)

ISS - Pass Details

Date: 25 February 2019
Orbit: 406 x 411 km, 51.6° (Epoch: 23 March)

Event Time Altitude Azimuth Distance (km) Brightness Sun altitude
Exits shadow 06:22:16 - 203° (SSW) 1,833 -0.8 -13.7°
Reaches altitude 10° 06:23:21 10° 194° (SSW) 1,459 -1.2 -13.5°
Maximum altitude 06:25:57 22° 142° (SE) 943 -1.5 -13.1°
Drops below altitude 10° 06:28:35 10° 88° (E) 1,475 0.5 -12.7°
Sets 06:30:56 0° 73° (ENE) 2,333 1.6 -12.3°
